Location: Unspecified
(0.0000°N, 0.0000°E)
Time: 17:53:25
(UTC+00:00)

deb Explorer IX - Visible Passes

Search period start: 30 September 2014 00:00
Search period end: 10 October 2014 00:00
Orbit: 559 x 1214 km, 38.8° (Epoch: 29 September)

Date Brightness Start Highest point End Pass type
(mag) Time Alt. Az. Time Alt. Az. Time Alt. Az.
30 Sep ? 20:22:23 10° NNW 20:23:28 14° NNW 20:23:28 14° NNW visible
01 Oct ? 20:19:08 10° NNW 20:21:16 20° NNW 20:21:16 20° NNW visible
02 Oct ? 18:32:09 10° NNE 18:34:10 11° NE 18:36:14 10° NE visible
02 Oct ? 20:16:00 10° NW 20:19:10 28° NNW 20:19:10 28° NNW visible
03 Oct ? 18:27:28 10° N 18:31:22 16° NE 18:34:30 12° ENE visible
03 Oct ? 20:12:59 10° NW 20:17:13 40° NW 20:17:13 40° NW visible
04 Oct ? 18:23:35 10° N 18:28:29 21° NE 18:32:41 13° E visible
04 Oct ? 20:10:04 10° NW 20:15:25 56° WNW 20:15:25 56° WNW visible
05 Oct ? 18:20:00 10° NNW 18:25:32 28° NE 18:31:02 12° E visible
05 Oct ? 20:07:15 10° WNW 20:13:47 62° WSW 20:13:47 62° WSW visible
06 Oct ? 18:16:36 10° NNW 18:22:31 37° NE 18:29:17 10° ESE visible
06 Oct ? 20:04:34 10° WNW 20:11:19 48° SW 20:12:16 45° SSW visible
07 Oct ? 18:13:19 10° NNW 18:19:28 50° NE 18:26:37 10° ESE visible
07 Oct ? 20:02:02 10° WNW 20:08:22 36° SW 20:10:53 29° S visible
08 Oct ? 05:22:01 10° S 05:26:11 20° SE 05:29:53 10° E visible
08 Oct ? 18:10:10 10° NW 18:16:23 67° NE 18:23:45 10° ESE visible
08 Oct ? 19:59:42 10° W 20:05:26 27° SW 20:09:32 17° S visible
09 Oct ? 05:18:16 10° SSW 05:23:21 29° SE 05:27:42 10° E visible
09 Oct ? 18:07:06 10° NW 18:13:19 89° NE 18:20:42 10° SE visible
09 Oct ? 19:57:37 10° W 20:02:32 20° SW 20:07:51 10° S visible
